AS855 Weather Reports


time (UTC)temp
F
wind
direction
speed
knots
gust
knots
rain 1hr
in
rain 24hr
in
rain mn
in
humidity
%
barometer
mb
20260906234556 76 248 3.5 7.8 0.00 0.00 0.00 38 1016.6
20260906233516 76 270 7.8 13.9 0.00 0.00 0.00 38 1016.4
20260906232518 77 248 10.4 19.1 0.00 0.00 0.00 37 1016.6
20260906231516 77 225 5.2 11.3 0.00 0.00 0.00 35 1017.4
20260906230556 78 293 3.5 8.7 0.00 0.00 0.00 35 1017.0
20260906225516 78 225 3.5 9.6 0.00 0.00 0.00 34 1016.8
20260906224516 78 248 7.8 12.2 0.00 0.00 0.00 34 1017.0
20260906223518 78 225 2.6 7.0 0.00 0.00 0.00 35 1017.4
20260906222516 78 68 1.7 2.6 0.00 0.00 0.00 34 1017.6
20260906221516 78 23 1.7 3.5 0.00 0.00 0.00 34 1017.4
20260906220516 78 45 3.5 5.2 0.00 0.00 0.00 34 1017.2
20260906215538 78 90 3.5 9.6 0.00 0.00 0.00 32 1017.2
20260906214516 79 0.0 2.6 0.00 0.00 0.00 32 1017.2
20260906213516 80 68 3.5 8.7 0.00 0.00 0.00 30 1017.0
20260906212516 80 338 3.5 7.0 0.00 0.00 0.00 30 1016.9
20260906211522 80 225 3.5 9.6 0.00 0.00 0.00 29 1017.4
20260906210516 80 270 2.6 7.8 0.00 0.00 0.00 30 1017.3
20260906205516 80 203 4.3 8.7 0.00 0.00 0.00 30 1017.2
20260906204516 80 225 7.0 13.9 0.00 0.00 0.00 29 1017.6
20260906203516 80 225 3.5 7.8 0.00 0.00 0.00 29 1017.8
20260906202536 80 203 7.0 13.0 0.00 0.00 0.00 29 1018.0
20260906201516 80 203 5.2 14.8 0.00 0.00 0.00 30 1018.3
20260906200538 79 225 5.2 13.0 0.00 0.00 0.00 30 1018.3
20260906195516 80 45 4.3 11.3 0.00 0.00 0.00 30 1018.8
20260906194537 80 293 3.5 7.8 0.00 0.00 0.00 29 1018.7
20260906193521 80 203 6.1 12.2 0.00 0.00 0.00 29 1018.9
20260906192516 80 270 6.1 13.9 0.00 0.00 0.00 28 1019.0
20260906191515 80 248 3.5 8.7 0.00 0.00 0.00 31 1018.9
20260906190516 79 158 0.9 4.3 0.00 0.00 0.00 31 1019.0
20260906185516 79 113 6.1 13.9 0.00 0.00 0.00 29 1019.2
20260906184516 79 248 5.2 12.2 0.00 0.00 0.00 31 1019.6
20260906183515 78 225 5.2 10.4 0.00 0.00 0.00 30 1019.6
20260906182538 78 135 5.2 13.9 0.00 0.00 0.00 30 1019.6
20260906181515 78 225 6.1 11.3 0.00 0.00 0.00 30 1019.3
20260906180538 77 203 8.7 15.6 0.00 0.00 0.00 31 1019.7
20260906175538 77 225 8.7 13.0 0.00 0.00 0.00 31 1019.9
20260906174521 78 158 3.5 11.3 0.00 0.00 0.00 30 1019.9
20260906173538 78 158 3.5 9.6 0.00 0.00 0.00 30 1020.1
20260906172518 76 23 1.7 6.1 0.00 0.00 0.00 32 1020.0
20260906171519 75 45 1.7 4.3 0.00 0.00 0.00 34 1019.9
20260906170517 75 45 4.3 7.8 0.00 0.00 0.00 35 1019.8
20260906165518 75 45 1.7 5.2 0.00 0.00 0.00 36 1019.9
20260906164517 75 45 1.7 5.2 0.00 0.00 0.00 34 1020.3
20260906163517 74 68 4.3 7.0 0.00 0.00 0.00 36 1019.9
20260906162538 73 293 2.6 4.3 0.00 0.00 0.00 37 1019.9
20260906161518 75 315 4.3 7.8 0.00 0.00 0.00 34 1020.0
20260906160517 74 338 2.6 5.2 0.00 0.00 0.00 35 1020.2
20260906155517 74 315 3.5 6.1 0.00 0.00 0.00 36 1020.3
20260906154517 74 315 2.6 5.2 0.00 0.00 0.00 37 1020.8
20260906153517 74 248 4.3 7.8 0.00 0.00 0.00 32 1020.6
20260906152520 74 315 2.6 7.8 0.00 0.00 0.00 35 1020.8
20260906151517 75 135 3.5 8.7 0.00 0.00 0.00 31 1021.4
20260906150517 75 180 4.3 7.8 0.00 0.00 0.00 31 1021.4
20260906145517 75 135 3.5 7.8 0.00 0.00 0.00 31 1021.4
20260906144537 74 135 4.3 8.7 0.00 0.00 0.00 31 1021.0
20260906143539 74 180 5.2 11.3 0.00 0.00 0.00 33 1021.0
20260906142517 73 158 3.5 7.0 0.00 0.00 0.00 33 1020.9
20260906141517 72 135 4.3 7.0 0.00 0.00 0.00 34 1020.9
20260906140518 71 135 3.5 6.1 0.00 0.00 0.00 34 1020.9
20260906135520 70 158 3.5 8.7 0.00 0.00 0.00 35 1020.4
20260906134517 69 158 0.9 3.5 0.00 0.00 0.00 36 1020.8
20260906133517 69 158 1.7 6.1 0.00 0.00 0.00 36 1020.5
20260906132518 69 225 2.6 6.1 0.00 0.00 0.00 35 1020.4
20260906131521 70 158 2.6 4.3 0.00 0.00 0.00 34 1020.8
20260906130518 69 158 3.5 7.8 0.00 0.00 0.00 34 1020.7
20260906125517 68 158 2.6 7.0 0.00 0.00 0.00 35 1020.7
20260906124519 67 203 3.5 7.8 0.00 0.00 0.00 36 1020.8
20260906123517 68 203 6.1 11.3 0.00 0.00 0.00 34 1020.7
20260906122537 70 203 1.7 3.5 0.00 0.00 0.00 33 1021.0
20260906121517 71 158 2.6 5.2 0.00 0.00 0.00 32 1021.4
20260906120517 71 158 3.5 7.0 0.00 0.00 0.00 32 1021.6
20260906115521 71 158 4.3 10.4 0.00 0.00 0.00 32 1021.3
20260906114520 70 158 2.6 7.0 0.00 0.00 0.00 33 1020.6
20260906113517 70 158 2.6 5.2 0.00 0.00 0.00 33 1020.7
20260906112517 70 180 2.6 6.1 0.00 0.00 0.00 33 1020.9
20260906111517 70 180 2.6 8.7 0.00 0.00 0.00 32 1021.2
20260906110537 70 158 3.5 5.2 0.00 0.00 0.00 32 1021.3
20260906105517 71 158 3.5 7.0 0.00 0.00 0.00 31 1021.3
20260906104517 71 158 3.5 7.8 0.00 0.00 0.00 31 1021.4
20260906103539 70 158 1.7 4.3 0.00 0.00 0.00 31 1020.9
20260906102517 71 158 2.6 5.2 0.00 0.00 0.00 31 1021.0
20260906101537 71 135 1.7 5.2 0.00 0.00 0.00 31 1021.3
20260906100517 69 158 1.7 4.3 0.00 0.00 0.00 33 1021.0
20260906095516 68 225 4.3 9.6 0.00 0.00 0.00 34 1020.6
20260906094538 68 225 4.3 10.4 0.00 0.00 0.00 34 1020.4
20260906093517 68 225 5.2 10.4 0.00 0.00 0.00 34 1020.6
20260906092516 68 225 1.7 3.5 0.00 0.00 0.00 34 1020.6
20260906091516 68 180 0.9 2.6 0.00 0.00 0.00 34 1020.0
20260906090516 69 203 7.0 9.6 0.00 0.00 0.00 32 1020.4
20260906085516 69 203 3.5 7.8 0.00 0.00 0.00 32 1020.3
20260906084519 69 135 0.9 2.6 0.00 0.00 0.00 32 1020.4
20260906083516 70 203 7.0 10.4 0.00 0.00 0.00 30 1020.4
20260906082537 70 225 4.3 10.4 0.00 0.00 0.00 29 1020.4
20260906081517 70 225 1.7 3.5 0.00 0.00 0.00 30 1020.2
20260906080517 70 225 6.1 9.6 0.00 0.00 0.00 30 1020.1
20260906075516 71 248 4.3 7.8 0.00 0.00 0.00 29 1020.4
20260906074517 72 225 5.2 9.6 0.00 0.00 0.00 29 1020.5
20260906073516 71 203 7.0 11.3 0.00 0.00 0.00 29 1020.1
20260906072517 71 203 0.9 7.0 0.00 0.00 0.00 30 1020.0
20260906071517 72 225 3.5 7.8 0.00 0.00 0.00 28 1020.1
20260906070516 72 203 3.5 8.7 0.00 0.00 0.00 27 1020.0
20260906065516 71 203 7.0 10.4 0.00 0.00 0.00 29 1020.3
20260906064518 71 203 6.1 10.4 0.00 0.00 0.00 29 1019.9
20260906063537 71 180 3.5 6.1 0.00 0.00 0.00 29 1019.8
20260906062536 71 203 7.0 10.4 0.00 0.00 0.00 28 1019.8
20260906061519 72 203 3.5 7.0 0.00 0.00 0.00 28 1019.7
20260906060516 72 203 3.5 7.0 0.00 0.00 0.00 28 1019.6
20260906055517 72 203 7.0 12.2 0.00 0.00 0.00 27 1019.7
20260906054519 72 203 0.9 3.5 0.00 0.00 0.00 27 1019.5
20260906053517 72 203 2.6 6.1 0.00 0.00 0.00 27 1019.5
20260906052516 72 180 1.7 3.5 0.00 0.00 0.00 27 1019.6
20260906051516 71 158 2.6 7.0 0.00 0.00 0.00 27 1018.9
20260906050519 71 113 2.6 5.2 0.00 0.00 0.00 28 1019.0
20260906045516 72 135 2.6 5.2 0.00 0.00 0.00 28 1019.3
20260906044537 72 113 2.6 4.3 0.00 0.00 0.00 27 1019.0
20260906043538 74 158 2.6 4.3 0.00 0.00 0.00 26 1019.2
20260906042516 74 135 2.6 4.3 0.00 0.00 0.00 25 1019.2
20260906041517 73 113 3.5 7.0 0.00 0.00 0.00 26 1019.2
20260906040517 72 135 3.5 6.1 0.00 0.00 0.00 26 1019.1
20260906035537 72 113 3.5 5.2 0.00 0.00 0.00 26 1019.0
20260906034537 73 158 1.7 4.3 0.00 0.00 0.00 26 1019.0
20260906033516 74 135 2.6 6.1 0.00 0.00 0.00 24 1019.1
20260906032517 75 180 4.3 10.4 0.00 0.00 0.00 24 1019.0
20260906031517 74 158 2.6 4.3 0.00 0.00 0.00 25 1018.1
20260906030516 75 135 2.6 6.1 0.00 0.00 0.00 24 1018.0
20260906025536 76 135 2.6 4.3 0.00 0.00 0.00 22 1018.1
20260906024517 76 180 2.6 5.2 0.00 0.00 0.00 22 1017.4
20260906023516 77 180 3.5 6.1 0.00 0.00 0.00 22 1017.4
20260906022517 77 203 4.3 8.7 0.00 0.00 0.00 22 1017.2
20260906021517 77 180 3.5 6.1 0.00 0.00 0.00 22 1016.5
20260906020516 78 180 3.5 7.0 0.00 0.00 0.00 21 1016.7
20260906015516 79 180 3.5 5.2 0.00 0.00 0.00 20 1016.7
20260906014519 80 248 6.1 13.0 0.00 0.00 0.00 19 1017.0
20260906013517 81 248 6.1 13.0 0.00 0.00 0.00 18 1017.2
20260906012516 82 270 4.3 10.4 0.00 0.00 0.00 18 1017.4
20260906011518 82 248 9.6 13.9 0.00 0.00 0.00 17 1017.7
20260906010516 83 248 7.8 14.8 0.00 0.00 0.00 17 1017.6
20260906005518 84 270 7.0 14.8 0.00 0.00 0.00 17 1017.4
20260906004516 84 248 8.7 16.5 0.00 0.00 0.00 16 1017.6
20260906003516 84 248 6.1 13.0 0.00 0.00 0.00 17 1017.5
20260906002602 85 248 7.8 11.3 0.00 0.00 0.00 16 1017.3
20260906001516 85 270 8.7 15.6 0.00 0.00 0.00 16 1017.4
20260906000516 85 248 8.7 12.2 0.00 0.00 0.00 16 1017.5
20260905235516 85 270 9.6 20.9 0.00 0.00 0.00 16 1017.3